SCOUT A DEB, 31407

Orbit data source: Space-Track

SCOUT A DEB, 31407 is space debris in LEO originally from a launch on Thu, 19 May 1966 UTC launched from the Air Force Western Test Range (AFWTR). Debris objects in space refer to the collection of defunct objects orbiting the Earth. Examples of debris include non-operational satellites, rocket bodies, and fragments generated from explosions, collisions, or faulty payload assembly.

Loading next visibility...
Identifier
31407, 1966-041H
Orbit
LEO
Last TLE update
5 days ago
Origin
Manufacturer
Unknown
Mission
Spacecraft
Bus & Motor
Unknown
Mass
Unknown
Launch date (UTC)
1966-05-19 (59 years ago)
Launch vehicle
Unknown
Launch site
Air Force Western Test Range (AFWTR)
Object type
Payload
Rocket body
Debris
Shape & HBR
Unknown
Radar Cross Section
Small (<0.1 m²)

Expand to show TLE details & history

TLE from 5 days ago
0 SCOUT A DEB
1 31407U 66041H   25124.56216017  .00003858  00000-0  14605-2 0  9996
2 31407  90.1992  65.4985 0056068 159.6035 200.7418 14.30222778141675
Epoch: 2025-05-04T13:29Z
Definitive object data (Epoch: 2025-05-04T13:29:30.638Z)
Latitude
-0.00008°
Longitude
0.43256°
Altitude
831.683 km
Speed
7.417 km/s
True Right ascension
04h 21m 59s
True Declination
0° 00' 00"
Sunlit
Object was in daylight at TLE epoch
Visualization TLE readout
Latitude
-54.94833°
Longitude
0.82244°
Altitude
850.309 km
Speed
7.407 km/s
Apparent Right ascension
03h 01m 48s
Apparent Declination
-49° 17' 01"
Sunlit
Object is in daylight
Visualization observer readout
Local Sidereal Time
13:52:48
Azimuth
226.806° WSW
Elevation
-74.615°
Doppler factor
1
Orbital elements
Apogee altitude
828.099 km
Perigee altitude
747.741 km
Semi-major axis
7,166.057 km
Eccentricity
0.0056068
Inclination
90.1992°
RAAN
65.4985°
Arg. of periapsis
159.6035°
True anomaly
200.51574°
Mean anomaly
200.7418°
Eccentric anomaly
200.62862°
Mean motion
3.57786 °/min
BSTAR
0.0014605
Orbital period
100.62 mins
Loading maneuver chart data...
Loading SW <> Apogee altitude chart data...
Loading historical data...
Loading historical data...
Loading historical data...
Loading historical data...
Loading historical data...
Loading historical data...
Loading historical data...

SCOUT A DEB Visibility forecast

Observer location: undefined°, undefined°

Span
Click to sort rows by Start time (UTC) header in descending order
Start Az.
Max El. time (UTC)
Max El. Az.
Max El.
End time (UTC)
End Az.
9 mins2025-05-09 08:15:05.800Z359.667° N2025-05-09 08:19:05.800Z321.189° NNW44.096°2025-05-09 08:24:05.800Z188.263° SSW
8 mins2025-05-09 19:33:05.800Z146.081° SSE2025-05-09 19:37:05.800Z77.242° E34.202°2025-05-09 19:41:05.800Z15.057° NNE
6 mins2025-05-09 21:15:05.800Z241.451° WSW2025-05-09 21:18:05.800Z284.58° WNW19.763°2025-05-09 21:21:05.800Z322.328° NNW
|